Location: La Fredeussais
(48.1780°N, 1.3980°W)
Time: 04:13:25
(UTC+00:00)

DNEPR-1 R/B - Pass Details

Date: 09 May 2021
Orbit: 587 x 1334 km, 64.6° (Epoch: 13 June)

Event Time Altitude Azimuth Distance (km) Brightness Sun altitude
Exits shadow 23:39:45 57° 210° (SSW) 965 4.2 -24.0°
Maximum altitude 23:40:56 85° 126° (SE) 806 3.9 -24.0°
Drops below altitude 10° 23:45:54 10° 40° (NE) 2,179 6.9 -24.1°
Sets 23:48:03 0° 40° (NE) 3,022 7.8 -24.1°
